Temperature
20 20 21 21 20 21 22 24 24 23 23 22 22 22 22 21 20 17 16 14 14 14 14 13 12 12 11 11 10 10 9 9 8 8 8 7 7 7 7 7 7 6 6 6 6 6 6 6 7
20 20 20 21 21 21 22 24 23 22 22 20 20 20 21 21 20 18 16 14 14 14 14 13 12 12 11 11 11 10 10 9 9 8 8 8 7 7 7 7 6 6 6 6 6 6 6 7 7
20 20 21 21 21 21 23 23 22 21 20 20 20 20 21 20 19 19 17 16 15 14 13 13 12 12 11 11 11 10 10 10 9 9 8 8 7 7 7 7 7 6 6 6 6 6 6 7 7
20 21 22 22 22 23 24 24 23 21 20 20 21 21 20 18 18 18 18 16 15 14 13 13 12 12 12 11 11 10 10 10 9 9 9 8 8 8 8 7 7 7 7 6 6 7 7 7 7
20 22 22 21 22 24 25 24 23 23 22 20 20 21 20 19 18 18 17 16 15 13 13 13 13 12 12 11 11 10 10 10 10 9 9 9 9 8 8 8 8 7 7 7 7 7 7 7 8
22 23 21 21 23 25 25 24 23 23 23 22 21 20 20 18 18 18 17 15 14 13 12 13 12 12 11 11 11 10 10 10 10 10 9 9 9 9 8 8 8 8 7 7 7 7 7 7 7
22 21 21 22 22 23 25 24 23 23 23 23 21 20 19 18 18 18 17 15 13 12 12 13 12 12 11 11 11 10 10 10 10 10 9 9 9 9 8 8 8 8 8 7 7 7 7 7 7
21 21 21 21 22 23 24 23 22 22 22 22 21 20 20 18 18 17 16 14 13 12 12 12 12 12 11 11 11 10 10 10 10 10 9 9 9 9 8 8 8 8 8 7 7 7 7 7 7
21 20 20 21 22 23 24 22 22 21 20 21 20 20 18 18 17 16 15 14 12 12 11 11 12 12 11 11 11 10 10 10 10 10 10 9 9 9 8 8 8 8 8 7 7 7 7 7 7
21 19 20 22 23 22 22 22 22 21 20 20 20 19 18 17 17 16 16 15 14 13 12 12 11 11 11 11 10 10 10 10 10 10 10 9 9 9 9 8 8 8 8 8 7 7 7 7 7
22 21 21 23 23 21 20 21 21 21 19 20 20 20 18 18 17 16 16 17 16 15 14 13 11 10 10 10 10 10 10 10 10 10 10 9 9 9 9 9 8 8 8 8 7 7 7 7 6
21 21 22 22 21 19 19 20 20 21 20 21 21 21 19 18 18 17 17 16 16 15 15 14 13 11 10 10 10 10 10 11 11 10 10 10 9 9 9 9 8 8 8 8 7 7 7 7 6
21 20 22 21 20 19 18 18 18 19 20 20 20 20 19 18 18 18 17 16 15 15 15 15 13 12 11 10 10 10 10 11 11 11 10 10 10 9 9 8 8 8 8 8 7 7 6 6 6
21 20 20 21 21 20 19 18 18 19 20 20 20 20 19 18 18 17 16 15 15 15 15 15 14 13 12 11 11 11 11 11 11 11 10 10 10 9 9 9 8 8 8 7 7 7 6 6 6
19 18 19 20 21 20 18 17 18 20 21 21 21 20 20 19 18 17 17 16 16 15 15 15 15 14 13 12 12 11 11 11 11 11 11 10 10 10 9 9 8 8 8 7 7 6 6 6 6
19 19 19 22 20 18 17 17 20 22 22 22 22 21 21 20 19 18 17 16 16 15 14 14 14 13 13 13 12 12 11 11 11 11 11 11 10 9 9 9 8 8 7 7 7 6 6 6 5
20 19 20 21 20 19 17 16 19 22 22 22 22 22 22 21 20 19 18 17 16 15 14 14 13 14 13 13 12 12 11 11 11 11 11 11 10 10 9 9 8 8 7 7 7 6 6 6 5
19 19 19 19 21 20 18 18 19 21 22 22 22 22 21 21 21 20 19 18 17 16 14 14 13 13 12 12 11 11 10 11 10 11 11 11 11 10 9 9 8 8 7 7 7 6 6 6 5
19 18 18 19 20 19 18 18 19 20 21 21 21 20 20 20 20 20 19 18 17 16 15 14 13 12 12 11 11 11 12 12 11 11 11 10 10 10 10 9 9 8 8 8 7 6 6 5 5
18 18 18 19 20 19 17 18 19 20 21 21 20 20 19 19 18 19 19 18 17 16 15 14 13 13 12 12 13 13 12 12 12 11 10 10 10 10 10 10 9 9 8 8 7 7 6 5 5
18 18 18 18 17 18 18 17 21 20 21 21 20 19 18 18 18 17 17 17 17 16 15 14 13 12 12 12 11 11 10 10 10 10 11 11 10 10 10 10 9 9 8 8 8 7 6 6 5
18 18 17 17 16 16 18 15 18 20 19 19 19 19 18 18 17 17 17 16 16 16 15 14 13 12 12 11 11 11 11 11 13 12 12 11 10 10 10 10 9 9 8 8 8 7 6 5 5
18 17 16 16 15 15 17 16 18 21 19 19 18 19 18 17 17 17 16 16 15 15 14 14 13 12 11 10 10 10 10 11 11 10 10 10 9 9 9 9 9 8 8 8 7 6 5 5 4
17 16 16 16 15 15 18 18 18 20 20 19 18 19 18 17 16 16 15 15 15 14 14 13 12 12 11 10 9 9 9 9 9 8 8 8 8 8 8 8 8 8 7 7 6 5 4 4 3
16 16 16 16 15 16 18 18 17 21 20 19 18 18 17 16 15 15 14 14 14 13 13 13 12 12 11 10 9 9 9 8 8 8 7 7 7 7 7 7 7 6 6 5 4 3 3 2 2
18 17 16 16 17 17 18 16 18 21 20 20 19 18 16 15 15 14 14 13 13 13 13 13 12 12 11 10 10 9 9 8 8 8 7 7 6 6 6 6 6 6 5 4 3 3 2 1 1
17 17 17 16 16 15 17 19 20 21 20 19 18 17 16 15 14 14 13 13 13 13 12 12 12 12 12 11 11 10 10 9 9 8 7 7 7 6 6 5 5 5 5 4 3 2 2 1 0
16 15 15 15 15 15 17 18 18 19 19 18 16 16 15 14 14 13 13 13 12 12 12 12 12 12 12 12 11 11 11 10 10 9 8 8 8 7 6 5 5 5 4 4 3 2 1 0 -0
14 15 15 15 15 14 14 16 19 19 18 17 16 15 14 14 13 13 13 12 12 12 12 12 12 11 11 11 11 11 11 10 10 9 9 9 8 7 6 6 5 4 4 3 2 2 1 -0 -1
17 17 16 14 15 15 14 15 20 19 18 16 16 15 14 13 13 13 12 12 11 11 11 11 11 11 11 10 10 10 10 10 9 9 9 8 8 8 7 6 5 4 4 3 2 2 1 -1 -1
Wind_Speed
10 11 7 3 4 5 8 1 2 6 4 5 5 3 6 6 4 4 7 10 15 19 24 24 22 20 18 16 14 13 12 11 11 11 11 11 11 12 12 13 13 14 14 15 15 16 16 17 18
10 7 4 4 5 6 6 2 6 10 7 6 3 2 4 1 7 10 8 10 19 22 24 23 23 21 19 17 16 14 13 12 11 11 11 11 11 11 11 12 12 13 13 13 14 14 15 15 16
8 7 4 4 7 8 5 5 10 8 6 3 4 4 4 4 11 11 10 13 18 20 24 24 24 22 20 18 17 15 14 13 12 11 11 11 10 11 11 11 11 11 11 12 12 12 13 14 14
5 4 5 6 10 9 3 5 9 7 4 3 4 4 4 6 7 11 14 13 14 16 23 25 25 23 21 20 18 16 15 14 13 12 11 11 10 10 10 10 10 9 10 10 10 11 11 12 13
4 4 6 8 11 11 3 6 6 2 6 8 6 5 5 6 11 16 14 14 15 14 22 25 25 24 22 20 19 17 16 15 14 13 12 11 10 10 10 9 8 8 8 8 9 9 9 10 11
4 4 6 8 11 8 1 7 6 4 7 5 8 5 4 8 12 15 13 12 12 13 21 25 25 24 23 21 20 18 17 16 15 13 12 12 11 10 9 9 8 7 7 6 6 7 7 8 9
5 5 8 11 11 10 7 6 3 4 6 5 9 5 7 8 11 13 13 10 11 15 19 23 23 23 23 22 21 20 18 17 16 15 13 12 11 10 9 9 7 6 5 5 5 4 5 5 7
4 5 10 10 11 9 5 3 1 3 6 3 7 6 3 10 12 12 12 10 11 10 13 20 22 22 22 21 22 21 20 18 17 16 14 13 12 11 10 9 8 6 5 4 3 2 2 2 3
3 5 9 10 9 8 5 1 2 4 4 4 4 1 7 16 14 12 10 10 11 12 10 15 20 22 22 21 22 22 21 20 19 17 16 15 13 12 11 10 9 8 6 5 3 2 1 2 2
4 5 10 9 8 8 9 8 7 4 7 8 8 7 11 14 14 15 15 16 16 15 14 9 15 20 22 21 21 21 20 19 19 18 18 16 16 15 13 13 11 10 8 7 6 5 5 5 3
6 7 9 9 7 6 7 9 9 9 11 11 11 14 16 15 16 17 17 18 17 16 14 13 11 19 21 18 20 19 19 19 20 21 22 19 16 14 13 14 12 11 11 10 10 9 10 6 2
6 10 11 8 4 3 7 8 9 12 13 11 10 4 18 18 19 20 20 17 16 14 17 14 12 13 17 18 17 19 18 18 19 21 24 20 15 14 15 15 16 16 15 14 12 12 10 7 7
9 10 10 7 5 7 9 12 11 16 16 13 12 9 16 19 18 18 17 16 16 18 18 16 14 11 13 14 14 16 16 18 20 22 24 23 16 13 14 14 16 17 16 15 12 12 10 9 8
7 9 11 11 10 7 9 11 8 15 13 13 13 13 13 18 18 16 16 17 18 19 19 18 17 13 14 11 10 12 16 18 20 21 23 24 21 17 15 14 14 16 16 16 15 12 9 8 8
5 8 12 12 11 4 3 10 10 17 13 12 12 12 13 15 17 18 18 18 17 16 17 18 18 14 14 12 13 14 16 18 18 20 24 25 23 20 17 13 12 16 17 16 13 12 9 6 6
6 6 7 3 8 6 1 10 9 9 9 11 12 12 12 15 18 18 17 17 15 14 16 18 18 17 16 13 13 13 16 17 18 20 23 25 25 23 19 13 11 18 18 15 9 6 5 5 5
7 6 8 5 6 6 7 13 15 12 13 13 10 9 10 11 15 18 18 18 17 16 15 17 17 17 16 13 11 13 14 15 18 20 21 24 26 25 20 14 15 19 15 12 9 6 7 6 6
8 10 10 10 5 6 10 16 21 15 11 8 6 5 4 5 6 10 15 16 16 15 14 15 16 15 14 12 9 9 10 10 15 17 20 22 25 26 22 16 16 17 9 9 8 8 8 6 6
8 9 13 13 6 4 11 17 20 15 5 7 8 8 8 8 7 2 6 11 12 13 13 15 16 15 14 12 13 14 14 12 10 12 19 23 24 25 23 14 14 14 11 12 11 9 8 8 5
8 11 12 11 5 8 12 15 17 6 5 5 7 8 9 10 10 9 4 6 9 12 12 13 15 16 15 14 12 10 9 9 9 8 15 22 24 25 24 17 11 11 11 13 14 10 8 8 8
10 10 9 9 10 9 8 10 3 8 10 8 9 10 9 10 10 9 7 2 6 9 12 12 13 15 16 14 8 7 7 7 10 11 13 16 23 24 23 21 15 12 14 15 16 14 15 12 10
8 4 6 8 8 6 6 6 7 7 9 9 9 9 8 8 8 7 6 4 3 8 9 11 12 13 14 14 12 13 14 17 17 12 11 12 18 21 24 22 20 14 14 15 16 16 13 11 9
5 6 7 8 7 6 6 6 8 5 8 8 9 8 8 8 8 8 6 5 3 3 7 8 10 11 12 13 15 14 16 15 10 10 12 14 14 17 20 21 18 17 16 16 15 16 16 14 12
7 8 10 5 3 5 5 5 7 1 6 8 8 8 8 9 9 9 9 7 5 2 2 5 7 9 10 12 13 15 17 14 11 12 12 12 11 13 16 16 16 16 16 17 16 15 16 16 15
5 5 4 2 4 5 2 3 8 3 7 8 8 7 8 9 9 9 10 10 9 6 2 3 6 7 9 11 13 14 15 15 15 13 12 11 11 12 15 17 18 17 16 13 13 15 16 17 16
4 3 4 4 5 5 3 7 7 1 5 8 8 7 8 9 8 8 9 9 8 8 5 2 4 7 8 9 11 12 13 11 12 13 12 13 12 12 13 17 19 19 17 17 15 15 16 14 17
4 2 2 3 7 6 6 7 6 2 4 7 7 8 8 7 7 7 7 7 7 7 6 3 3 5 6 8 9 10 12 12 13 13 13 12 12 10 12 15 18 19 19 18 17 17 18 16 17
4 6 3 4 4 5 7 7 2 3 3 5 6 6 7 6 6 7 6 6 5 4 4 3 3 4 5 6 7 8 10 11 12 12 14 14 13 12 11 13 15 17 18 18 18 17 16 17 16
6 4 5 5 6 4 6 6 5 6 5 6 6 6 6 5 5 5 6 6 7 6 6 4 4 4 5 6 7 8 9 9 10 11 13 13 13 13 14 13 14 15 17 18 18 19 16 19 18
2 3 5 5 7 6 7 8 3 3 5 5 6 6 4 4 3 4 6 7 7 8 8 7 6 6 6 6 6 7 8 8 9 11 12 11 12 13 13 13 14 15 16 17 19 21 20 20 21
Wind_Direction
269 249 239 254 246 250 269 256 79 89 80 68 60 342 333 344 17 130 175 172 136 145 152 158 157 156 154 150 146 142 136 131 124 116 109 102 96 91 86 81 77 73 69 65 62 60 58 56 55
274 239 237 245 254 270 283 59 73 70 72 85 92 277 271 108 104 125 160 160 145 150 153 161 160 158 157 156 153 149 145 140 133 126 119 112 105 99 93 87 82 77 73 68 64 61 58 56 54
271 256 243 238 249 258 284 62 79 86 93 150 182 213 286 85 127 147 161 148 149 152 156 162 162 162 161 161 159 156 152 147 141 136 129 122 114 107 101 95 89 83 78 73 67 62 58 55 53
259 228 238 247 262 269 282 75 92 120 142 225 260 210 163 93 122 140 146 153 153 155 157 161 165 166 166 166 164 162 159 155 150 144 139 132 125 117 110 103 97 90 83 77 71 64 59 54 51
235 247 240 250 261 270 265 101 108 202 189 186 204 262 139 100 104 126 148 162 159 158 156 162 169 170 170 170 169 168 165 161 158 154 150 143 136 129 122 114 106 98 89 81 73 66 59 53 49
256 253 260 262 268 276 280 133 147 216 269 207 172 239 135 134 133 141 158 168 162 159 154 164 173 174 174 175 174 173 171 168 165 162 158 154 148 142 136 130 121 112 101 89 78 67 56 49 45
282 279 273 281 291 303 320 110 167 241 269 255 157 203 136 168 151 146 159 171 165 162 156 163 176 178 179 179 179 178 176 174 172 170 167 163 159 155 150 145 139 131 120 105 89 74 55 43 40
314 293 281 281 285 294 333 107 68 316 290 307 152 214 155 166 143 144 157 176 172 166 164 165 176 179 180 182 183 182 182 180 178 176 174 172 169 165 163 161 159 154 148 139 124 96 54 32 31
277 263 269 277 292 309 356 291 214 149 285 277 192 180 92 126 139 150 161 182 183 177 176 170 177 180 180 181 187 186 186 185 182 180 180 177 173 172 177 175 174 175 175 175 176 192 245 253 257
236 256 265 285 314 329 331 309 292 232 229 243 215 146 133 142 158 171 179 186 190 188 185 181 180 179 180 184 184 183 185 185 180 177 181 184 190 184 182 180 183 189 193 197 205 224 239 252 257
246 252 275 299 334 344 312 295 281 265 256 240 232 190 163 167 175 187 193 194 195 190 186 188 186 180 180 182 176 182 185 182 185 181 181 192 195 182 171 171 188 196 203 210 210 226 233 236 219
253 279 288 296 344 315 286 284 283 254 250 255 274 246 166 179 188 195 199 199 194 191 192 190 187 182 181 179 178 181 184 183 188 189 182 189 187 180 183 182 186 194 200 209 206 220 218 217 227
257 264 275 286 277 255 265 270 278 267 264 264 257 237 178 191 199 203 204 201 195 195 193 192 189 186 182 179 181 185 185 184 186 189 186 186 185 185 190 196 193 195 196 197 208 219 216 212 223
304 317 295 275 259 250 255 267 265 264 254 247 240 230 199 199 203 205 207 207 202 197 194 191 192 189 185 185 185 188 188 184 186 190 192 190 188 189 192 195 196 198 201 198 203 214 213 212 216
301 286 277 250 223 217 299 274 237 250 251 249 239 225 213 206 202 208 209 210 207 198 192 192 194 191 190 191 191 193 192 189 191 192 195 196 194 192 193 195 195 198 200 200 204 215 212 215 218
235 252 264 206 167 145 162 274 261 300 298 266 244 231 220 212 208 209 208 206 205 197 191 192 194 195 195 194 195 197 197 196 197 196 196 199 200 197 194 197 196 196 196 197 195 200 194 210 214
224 268 308 350 174 185 210 270 284 293 286 277 264 245 233 227 214 209 205 201 199 198 190 189 190 194 196 194 194 200 201 203 201 201 199 200 201 201 199 199 198 193 192 193 198 197 196 204 210
335 330 318 314 289 257 261 279 296 306 302 308 320 327 302 263 247 213 202 198 193 193 189 186 188 190 191 192 195 202 210 209 206 205 204 200 202 203 202 202 199 193 191 194 197 198 199 202 201
328 304 296 294 315 324 282 288 296 304 342 14 15 20 15 2 348 339 182 185 180 182 186 185 188 190 190 196 202 205 211 211 210 208 206 203 201 202 203 205 201 198 199 200 196 192 199 203 186
287 285 286 295 343 322 284 289 286 270 93 71 57 52 39 24 16 13 56 149 174 181 188 188 189 191 195 202 205 207 208 211 215 211 211 207 204 202 206 206 204 202 202 202 201 195 194 198 186
276 280 301 320 329 279 275 300 282 120 109 93 76 68 58 44 35 21 17 119 176 189 193 198 196 195 197 197 194 201 206 211 216 216 216 211 208 206 206 208 207 205 205 209 206 199 197 202 197
285 345 335 319 322 307 330 304 289 154 119 104 88 70 58 49 45 37 18 357 222 209 200 199 199 199 197 194 201 203 210 218 220 218 216 213 212 211 210 209 209 210 210 212 211 207 203 195 199
297 337 285 283 288 286 252 234 278 205 132 115 99 81 62 47 39 29 19 345 309 225 201 202 204 207 202 200 205 212 222 229 228 220 219 217 217 216 214 212 211 214 215 214 211 210 207 206 204
299 291 262 227 264 263 222 207 283 345 111 107 91 75 55 39 29 21 13 5 352 337 199 199 209 219 212 208 210 215 225 229 229 227 226 223 220 219 218 215 215 217 218 217 214 212 212 212 211
239 296 316 230 220 228 108 244 254 302 98 102 91 68 50 41 31 21 14 8 5 359 312 214 216 231 225 219 219 222 226 228 232 232 231 228 226 223 219 217 220 221 221 217 213 215 217 214 213
297 309 310 302 294 318 274 238 252 101 99 110 102 78 57 46 36 28 20 12 5 2 355 305 240 238 234 228 228 228 228 230 236 235 233 233 233 228 216 215 219 221 219 219 216 219 221 218 219
282 233 50 321 286 269 250 241 246 195 108 102 83 65 57 49 40 31 22 13 4 0 355 337 292 260 245 236 233 232 230 231 234 233 234 238 238 232 218 213 216 218 218 218 217 222 222 220 220
285 327 310 251 272 283 279 276 283 52 39 59 54 58 59 51 37 27 13 2 354 347 335 340 318 284 261 247 241 240 236 235 235 234 236 237 238 234 228 220 216 215 216 217 218 224 222 221 222
177 205 227 259 273 276 290 278 344 350 42 42 43 56 62 45 30 18 4 354 347 346 339 328 308 291 275 262 254 252 250 245 243 241 241 239 238 234 233 229 222 219 217 216 219 223 219 222 223
131 242 247 252 265 271 285 277 307 84 62 51 53 54 59 47 23 5 356 348 344 340 332 327 316 303 284 268 262 260 261 258 253 251 249 243 240 236 235 232 229 226 221 217 219 223 221 221 223
Height
1537 1539 1541 1543 1545 1544 1541 1532 1528 1533 1535 1540 1542 1543 1543 1543 1546 1554 1553 1552 1552 1554 1556 1559 1561 1563 1565 1567 1568 1569 1570 1570 1571 1571 1571 1571 1571 1571 1571 1570 1570 1569 1568 1567 1566 1566 1565 1564 1562
1537 1541 1544 1543 1544 1550 1541 1529 1530 1534 1538 1541 1543 1544 1543 1543 1544 1547 1548 1550 1550 1552 1554 1557 1559 1562 1564 1565 1567 1568 1569 1569 1570 1570 1570 1570 1570 1570 1570 1570 1569 1569 1568 1567 1566 1566 1565 1564 1563
1538 1541 1543 1540 1542 1545 1538 1529 1531 1537 1539 1541 1542 1543 1543 1543 1542 1544 1545 1547 1549 1550 1552 1555 1557 1560 1562 1564 1565 1566 1567 1568 1569 1569 1569 1570 1570 1569 1569 1569 1569 1568 1567 1567 1566 1565 1565 1564 1563
1540 1542 1541 1540 1540 1530 1526 1527 1531 1536 1539 1541 1541 1541 1541 1542 1541 1541 1543 1545 1547 1549 1550 1552 1555 1558 1560 1562 1563 1565 1566 1567 1567 1568 1568 1569 1569 1569 1568 1568 1568 1567 1567 1566 1566 1565 1565 1564 1563
1540 1540 1539 1540 1535 1526 1522 1525 1529 1533 1535 1537 1539 1539 1538 1538 1538 1540 1541 1543 1545 1547 1548 1550 1553 1555 1558 1560 1561 1563 1564 1565 1566 1566 1567 1567 1567 1567 1567 1567 1567 1567 1567 1566 1565 1565 1565 1564 1563
1541 1537 1542 1542 1531 1522 1520 1522 1527 1530 1532 1532 1535 1537 1536 1535 1536 1537 1539 1541 1543 1545 1546 1547 1550 1553 1555 1557 1559 1560 1562 1563 1564 1565 1565 1566 1566 1566 1566 1566 1566 1566 1566 1565 1565 1564 1564 1563 1563
1540 1538 1540 1536 1531 1525 1521 1522 1526 1527 1529 1530 1531 1533 1532 1532 1533 1534 1537 1539 1541 1543 1543 1544 1547 1550 1552 1554 1556 1558 1559 1560 1561 1562 1563 1564 1564 1565 1565 1565 1565 1565 1565 1564 1564 1564 1563 1563 1562
1539 1538 1537 1535 1532 1527 1522 1523 1525 1527 1527 1528 1528 1529 1528 1528 1529 1531 1534 1536 1539 1540 1541 1541 1544 1546 1548 1551 1553 1555 1556 1558 1559 1560 1561 1562 1562 1563 1563 1563 1563 1563 1563 1563 1563 1562 1562 1562 1561
1539 1541 1541 1535 1530 1525 1522 1523 1524 1524 1525 1526 1526 1527 1526 1526 1527 1528 1530 1532 1535 1536 1537 1538 1539 1542 1544 1547 1549 1551 1553 1554 1556 1557 1558 1559 1560 1561 1561 1561 1561 1561 1561 1561 1561 1561 1560 1560 1560
1537 1541 1535 1527 1525 1523 1523 1523 1523 1522 1521 1522 1523 1523 1522 1522 1524 1524 1525 1526 1528 1530 1532 1534 1536 1537 1540 1542 1544 1546 1548 1550 1552 1553 1555 1556 1557 1557 1558 1558 1558 1559 1559 1559 1559 1558 1558 1558 1558
1533 1532 1527 1525 1524 1524 1523 1522 1521 1520 1517 1517 1517 1516 1515 1516 1518 1519 1520 1521 1523 1525 1527 1529 1532 1534 1535 1537 1539 1541 1543 1545 1547 1549 1551 1552 1553 1554 1554 1555 1556 1556 1556 1556 1556 1556 1556 1556 1556
1530 1528 1526 1523 1523 1523 1523 1520 1518 1515 1511 1512 1513 1513 1510 1510 1511 1512 1514 1516 1518 1520 1521 1524 1527 1529 1531 1533 1534 1536 1538 1540 1542 1544 1546 1548 1549 1550 1551 1551 1552 1553 1553 1553 1553 1553 1553 1553 1553
1528 1525 1523 1522 1521 1521 1521 1518 1517 1509 1506 1507 1508 1509 1507 1506 1506 1507 1509 1512 1513 1514 1516 1518 1521 1523 1526 1528 1529 1531 1533 1534 1537 1539 1541 1543 1544 1546 1547 1547 1548 1548 1549 1549 1550 1550 1549 1549 1550
1525 1524 1521 1519 1518 1517 1516 1514 1514 1501 1500 1501 1501 1502 1502 1501 1501 1503 1504 1506 1507 1508 1510 1512 1515 1517 1520 1522 1523 1525 1527 1529 1531 1534 1536 1537 1539 1541 1542 1542 1543 1544 1544 1545 1546 1546 1546 1546 1545
1526 1524 1518 1511 1511 1513 1514 1511 1505 1496 1496 1497 1496 1496 1496 1496 1497 1497 1498 1500 1502 1504 1505 1507 1509 1512 1514 1516 1518 1520 1522 1524 1525 1527 1530 1532 1533 1535 1536 1537 1538 1539 1540 1540 1541 1541 1541 1541 1541
1524 1523 1521 1506 1507 1511 1517 1511 1497 1495 1494 1492 1490 1490 1489 1489 1489 1489 1492 1494 1497 1499 1501 1502 1504 1506 1508 1510 1513 1515 1517 1518 1520 1521 1523 1525 1527 1529 1530 1531 1532 1533 1534 1535 1535 1536 1536 1536 1536
1521 1523 1517 1511 1507 1508 1512 1506 1491 1493 1490 1486 1484 1483 1483 1483 1483 1483 1485 1487 1490 1493 1495 1497 1498 1500 1503 1505 1507 1510 1511 1512 1513 1515 1516 1518 1520 1522 1523 1524 1526 1527 1528 1528 1529 1529 1530 1530 1530
1526 1525 1520 1517 1507 1506 1507 1500 1488 1486 1484 1481 1480 1479 1479 1479 1479 1479 1479 1481 1484 1487 1490 1492 1493 1495 1498 1500 1502 1503 1505 1505 1506 1507 1508 1510 1512 1514 1516 1517 1518 1520 1520 1520 1521 1522 1523 1523 1524
1522 1524 1524 1514 1505 1506 1505 1498 1488 1483 1482 1480 1480 1479 1479 1478 1477 1477 1476 1478 1481 1483 1486 1487 1488 1489 1492 1493 1493 1494 1495 1497 1498 1499 1501 1503 1504 1506 1508 1509 1510 1511 1511 1512 1514 1515 1515 1516 1517
1523 1524 1520 1510 1503 1506 1502 1495 1484 1479 1480 1481 1481 1481 1480 1479 1477 1476 1476 1477 1478 1479 1481 1482 1482 1483 1484 1485 1486 1488 1490 1491 1492 1493 1494 1494 1495 1497 1498 1500 1501 1502 1503 1504 1505 1506 1506 1507 1509
1520 1521 1517 1515 1510 1502 1502 1498 1481 1479 1479 1481 1482 1482 1482 1481 1480 1478 1478 1478 1477 1477 1477 1477 1477 1477 1478 1479 1482 1483 1484 1484 1484 1483 1484 1485 1487 1488 1488 1490 1492 1493 1493 1494 1494 1496 1497 1497 1498
1521 1514 1516 1516 1520 1516 1507 1517 1490 1479 1480 1481 1482 1483 1483 1482 1481 1479 1478 1477 1476 1474 1473 1473 1473 1473 1473 1474 1475 1474 1474 1472 1471 1474 1476 1478 1479 1479 1479 1480 1481 1482 1483 1483 1484 1486 1486 1488 1488
1515 1513 1515 1516 1519 1521 1508 1513 1496 1477 1482 1482 1482 1483 1483 1483 1481 1480 1478 1476 1474 1472 1471 1470 1469 1469 1469 1469 1468 1468 1467 1467 1468 1470 1469 1469 1469 1470 1470 1471 1471 1471 1471 1472 1474 1474 1475 1475 1477
1516 1514 1511 1514 1519 1524 1502 1506 1499 1480 1479 1480 1481 1482 1483 1482 1481 1479 1477 1475 1472 1470 1468 1467 1466 1465 1466 1465 1464 1463 1462 1463 1463 1463 1462 1462 1461 1461 1461 1461 1461 1461 1461 1461 1462 1464 1464 1464 1465
1518 1520 1520 1522 1528 1518 1498 1501 1496 1476 1474 1477 1480 1482 1482 1481 1480 1478 1476 1473 1471 1468 1466 1464 1463 1462 1461 1461 1460 1459 1458 1457 1456 1456 1456 1456 1454 1452 1451 1452 1451 1451 1451 1452 1453 1453 1453 1454 1453
1514 1517 1528 1532 1522 1511 1498 1503 1486 1472 1473 1475 1479 1481 1481 1480 1479 1477 1475 1473 1471 1468 1465 1463 1461 1459 1457 1456 1455 1454 1452 1451 1449 1449 1448 1447 1445 1444 1444 1443 1442 1441 1442 1442 1443 1443 1442 1443 1442
1514 1514 1513 1523 1520 1521 1504 1486 1474 1469 1472 1475 1478 1479 1479 1479 1478 1476 1475 1474 1471 1469 1466 1463 1460 1458 1455 1453 1451 1448 1447 1445 1442 1441 1440 1438 1437 1437 1437 1435 1433 1432 1431 1431 1431 1430 1430 1431 1430
1515 1516 1519 1522 1526 1524 1503 1491 1486 1476 1475 1476 1477 1478 1478 1478 1477 1476 1475 1473 1471 1469 1466 1463 1460 1457 1454 1451 1448 1445 1442 1439 1436 1434 1431 1429 1428 1428 1427 1426 1424 1422 1421 1420 1420 1418 1418 1419 1418
1518 1517 1517 1518 1516 1523 1519 1502 1475 1474 1474 1476 1477 1477 1477 1477 1477 1476 1474 1473 1471 1468 1465 1462 1458 1455 1451 1448 1444 1441 1437 1434 1431 1428 1424 1422 1419 1418 1416 1415 1414 1412 1410 1409 1408 1407 1407 1407 1407
1504 1507 1511 1522 1517 1511 1515 1501 1472 1471 1473 1475 1477 1477 1477 1476 1475 1474 1473 1471 1468 1465 1462 1459 1455 1451 1447 1443 1440 1436 1432 1429 1425 1421 1418 1415 1411 1409 1407 1405 1403 1401 1399 1398 1397 1395 1395 1395 1395